Location: Harwich
(41.6860°N, 70.0760°W)
Time: 16:24:17
(UTC-04:00)

Daily predictions for brighter satellites

Satellite Brightness Start Highest point End
(mag) Time Altitude Azimuth Time Altitude Azimuth Time Altitude Azimuth
IDEFIX/ARIANE 42P 3.6 18:45:03 10° S 18:50:09 53° W 18:55:19 10° NNW
FREGAT/IRIS 3.7 18:48:28 10° SE 18:51:08 27° ENE 18:53:49 10° NNE
Cosmos 2297 3.9 18:45:47 10° NNW 18:51:27 79° WSW 18:57:05 10° SSE
Abrixas 3.6 18:49:32 10° SSW 18:52:10 28° SE 18:54:48 10° E
Cosmos 1805 4.0 18:53:05 10° SSE 18:56:34 31° E 19:00:03 10° NNE
Cosmos 2369 Rocket 3.6 18:55:02 10° N 18:59:13 21° NE 19:03:23 10° E
GPS 2-04 Rocket1 4.2 18:56:53 10° SSW 18:59:20 18° SSE 19:01:50 10° ESE
Aureole 2 Rocket 3.5 18:55:05 10° SSW 18:59:27 66° WNW 19:03:41 10° NNE
NOAA 12 4.2 18:56:12 10° SSE 19:01:20 58° ENE 19:06:31 10° N
Cosmos 1766 Rocket 3.8 18:57:19 10° N 19:01:34 48° ENE 19:05:46 10° SSE
NOSS 3-2 (A) 3.6 18:55:47 10° SW 19:01:51 82° NW 19:08:32 10° NE
Cosmos 1076 Rocket 3.5 18:57:43 10° N 19:02:01 60° E 19:06:18 10° SSE
Meteor 1-22 Rocket 4.2 18:57:38 10° S 19:02:58 85° W 19:08:17 10° N
Cosmos 1953 2.8 18:59:55 10° SSE 19:03:37 38° E 19:07:20 10° NNE
ATLAS CENTAUR R/B 4.0 19:02:16 10° WNW 19:05:28 22° WSW 19:08:28 10° SSW
Cosmos 1603 4.0 19:01:48 10° S 19:07:14 46° ESE 19:12:43 10° NE
Meteor 1-29 4.2 19:05:17 10° NE 19:08:05 22° E 19:10:51 10° SSE
Meteor 1-24 Rocket 4.1 19:02:42 10° NNW 19:08:17 69° W 19:13:38 10° S
SAR-Lupe-1 4.0 19:06:32 10° SSE 19:10:04 78° ENE 19:13:39 10° N
Cosmos-2242 3.4 19:06:39 10° SSE 19:10:45 43° E 19:14:56 10° NNE
Cosmos 1452 Rocket 3.5 19:10:01 10° NNW 19:15:18 78° ENE 19:20:32 10° SSE
OAO 3 Rocket 4.1 19:11:18 10° WSW 19:15:39 37° S 19:19:31 13° ESE
Cosmos 2034 Rocket 4.0 19:12:43 10° S 19:18:55 66° E 19:25:12 10° NNE
Cosmos 1464 Rocket 4.0 19:13:10 10° S 19:19:25 88° E 19:25:38 10° N
Cosmos 1470 3.8 19:17:56 10° SE 19:21:02 23° E 19:24:09 10° NE
In-Cosmos 22 4.2 19:15:14 10° N 19:21:03 79° E 19:26:47 10° SSE
Spot 1 4.1 19:20:07 10° SSE 19:24:47 70° ENE 19:29:12 10° N
ASTEX 1 4.1 19:20:31 10° NNE 19:24:50 30° E 19:29:06 10° SSE
CZ-4C R/B 4.3 19:24:07 10° W 19:28:39 25° NW 19:33:40 10° NNE
Cosmos 1674 3.4 19:25:23 10° NNE 19:28:55 32° ENE 19:31:20 17° SE
CENTAUR R/B 3.0 19:25:15 10° S 19:30:39 36° ESE 19:36:36 10° NE
SJ-6B 3.5 19:28:46 10° S 19:32:42 59° W 19:36:45 10° NNW
ATLAS CENTAUR R/B 3.8 19:27:47 10° SW 19:32:55 82° NW 19:50:01 10° NE
Cosmos 468 4.4 19:28:00 10° SSW 19:33:14 77° ESE 19:38:29 10° NNE
Cosmos 1408 Rocket 3.8 19:29:06 10° NNW 19:33:26 69° W 19:37:42 10° S
Cosmos 1500 Rocket 4.1 19:30:01 10° N 19:34:12 38° ENE 19:37:37 14° SE
Cosmos 1842 Rocket 4.0 19:30:48 10° SSE 19:34:46 37° E 19:38:48 10° NNE
Cosmos 1420 Rocket 4.0 19:30:11 10° NNW 19:35:29 66° ENE 19:40:46 10° SSE
Cosmos 724 4.4 19:30:57 10° SSW 19:36:53 88° WNW 19:43:01 10° NNE
ATLAS 5 CENTAUR R/B 2.5 19:33:15 10° SW 19:37:58 57° NW 19:43:07 10° NNE
FengYun 1-2 T 4.2 19:34:41 10° SSE 19:40:08 67° ENE 19:45:35 10° N
NOSS 3-2 (C) 4.1 19:35:36 10° SW 19:41:36 58° NW 19:48:13 10° NNE
ALOS 2.3 19:41:59 12° SSE 19:46:14 55° ENE 19:50:48 10° N
Cosmos 1758 4.0 19:43:23 10° SSW 19:47:25 60° W 19:51:30 10° N
Helios 1A 3.0 19:46:11 10° SSE 19:50:23 83° WSW 19:54:39 10° NNW
Spot 2 Rocket 3.6 19:45:39 10° S 19:50:41 76° WSW 19:55:45 10° NNW
ISS -3.5 19:50:55 10° SW 19:54:09 75° SE 19:54:44 56° ENE
Cosmos 1048 Rocket 3.9 19:49:21 10° SSW 19:54:38 78° ESE 19:59:53 10° NNE
Cosmos 1544 3.5 19:53:17 10° SSW 19:56:59 66° W 20:00:44 10° N
Cosmos 1269 Rocket 4.0 19:52:18 10° SSW 19:57:35 85° WNW 20:02:54 10° NNE
Resurs 1-3 3.7 19:55:38 10° S 20:00:00 75° WSW 20:04:26 10° NNW
Envisat 4.3 20:02:21 22° NE 20:02:21 22° NE 20:05:42 10° NNE
SL-8 R/B 3.6 19:57:21 10° WSW 20:02:09 88° NW 20:04:21 32° ENE
Cosmos 1743 Rocket 3.8 19:59:00 10° NNW 20:03:26 70° W 20:07:47 10° S
SL-16 R/B 4.4 19:59:14 10° WSW 20:03:57 26° NW 20:08:42 10° N
Resurs 01 Rocket 2.5 20:01:23 10° S 20:05:42 50° W 20:10:03 10° NNW
Cosmos 1174 3.9 20:02:38 10° SSW 20:07:23 61° ESE 20:08:09 50° ENE
USA 215 3.2 20:06:03 10° NE 20:12:38 87° SE 20:19:10 10° SW
Cosmos 1328 4.2 20:08:54 10° N 20:12:09 46° NE 20:12:09 46° NE
Cosmos 158 Rocket 3.7 20:08:30 10° S 20:13:20 68° ESE 20:18:12 10° NNE
FENGYUN 3A 3.6 20:09:55 11° SSE 20:15:06 83° WSW 20:20:32 10° NNW
CZ-2D R/B 3.2 20:15:35 52° S 20:16:29 86° WSW 20:20:24 10° NNW
Helios 1B rocket 4.1 20:19:25 10° N 20:23:11 35° WNW 20:26:56 10° SW
Cosmos 2279 Rocket 4.1 20:25:11 47° E 20:25:27 48° E 20:31:22 10° NNE
Abrixas 4.3 20:25:01 10° W 20:26:59 31° WNW 20:26:59 31° WNW
H-2A R/B 3.2 20:28:07 51° SSW 20:28:48 61° W 20:32:39 10° NNW
GP-B 3.0 20:25:47 10° N 20:30:15 89° SE 20:30:36 76° S
CZ-4B DEB 4.3 20:31:56 35° WSW 20:32:10 35° W 20:35:12 10° NNW
Cosmos 1092 Rocket 4.3 20:27:01 10° NNW 20:33:10 65° W 20:39:13 10° S
ERS-1 Rocket 3.5 20:35:36 43° NE 20:35:36 43° NE 20:39:27 10° N
Gbstr 26 Del rocket 3.3 20:34:44 10° WSW 20:39:20 84° NW 20:39:48 73° NE
Cosmos 1655 Rocket 3.8 20:33:12 10° N 20:39:26 72° E 20:40:33 59° SE
Cosmos 1943 Rocket 2.5 20:34:35 10° NNW 20:39:37 50° NE 20:39:37 50° NE
H-2A R/B 4.4 20:46:02 14° NNE 20:46:02 14° NNE 20:46:53 10° N
Cosmos 2369 Rocket 2.4 20:38:08 10° NNW 20:43:45 66° WSW 20:45:20 46° S
Cosmos 1943 3.5 20:39:19 10° SSW 20:44:54 66° WNW 20:50:31 10° NNE
Cosmos 2026 Rocket 3.8 20:39:16 10° N 20:45:24 88° E 20:46:56 54° S
Cosmos 1110 Rocket 3.9 20:40:55 10° NNW 20:46:09 84° NNE 20:46:09 84° NNE
Cosmos 1428 Rocket 4.5 20:41:52 10° N 20:47:47 61° ENE 20:47:47 61° ENE
Cosmos 1634 Rocket 4.3 20:42:57 10° SSW 20:49:08 66° W 20:55:19 10° N
Cosmos 2058 4.4 20:45:40 10° N 20:47:52 31° N 20:47:52 31° N
Cosmos 2151 3.8 20:48:33 10° NNW 20:52:06 48° WNW 20:52:06 48° WNW
Cosmos 2263 4.2 20:47:27 10° NNW 20:53:15 78° WSW 20:53:43 72° SSW
Cosmos 839 Rocket 4.5 20:54:56 10° NW 21:02:18 62° WSW 21:03:47 50° SSW
CENTAUR R/B 3.5 21:15:12 10° WSW 21:21:06 45° NW 21:27:45 10° NNE
USA 215 4.5 21:53:08 29° N 21:55:12 36° NNW 22:01:02 10° W
